GW0416 Weather Reports


Display with metric or nautical units.
time (UTC)temp
F
wind
direction
speed
MPH
gust
MPH
rain 1hr
in
rain 24hr
in
rain mn
in
humidity
%
barometer
mb
20260505223037 47 355 18.0 28.0 0.00 0.00 0.00 33 1018.6
20260505221530 47 13 20.0 30.0 0.00 0.00 0.00 35 1018.5
20260505220028 45 352 22.0 30.0 0.00 0.00 0.00 36 1018.7
20260505214532 46 5 19.0 34.0 0.00 0.00 0.00 34 1018.7
20260505213030 46 5 19.0 27.0 0.00 0.00 0.00 36 1018.8
20260505211541 46 322 20.0 27.0 0.00 0.00 0.00 37 1019.0
20260505210033 46 5 14.0 32.0 0.00 0.00 0.00 38 1019.0
20260505204534 45 344 21.0 31.0 0.00 0.00 0.00 37 1019.0
20260505203032 46 355 18.0 33.0 0.00 0.00 0.00 38 1019.0
20260505201533 46 349 19.0 28.0 0.00 0.00 0.00 38 1019.1
20260505200030 45 340 20.0 32.0 0.00 0.00 0.00 40 1019.0
20260505194532 44 335 18.0 30.0 0.00 0.00 0.00 40 1019.1
20260505193032 45 344 20.0 28.0 0.00 0.00 0.00 38 1019.1
20260505191535 45 5 20.0 31.0 0.00 0.00 0.00 39 1019.2
20260505190029 44 350 23.0 34.0 0.00 0.00 0.00 40 1019.1
20260505184539 44 14 18.0 32.0 0.00 0.00 0.00 42 1019.0
20260505183031 43 317 20.0 29.0 0.00 0.00 0.00 44 1019.3
20260505181537 44 309 16.0 28.0 0.00 0.00 0.00 44 1019.1
20260505180033 43 341 20.0 29.0 0.00 0.00 0.00 44 1019.1
20260505174537 43 344 18.0 27.0 0.00 0.00 0.00 43 1019.1
20260505173031 42 326 15.0 24.0 0.00 0.00 0.00 47 1019.2
20260505171538 41 348 15.0 25.0 0.00 0.00 0.00 46 1019.4
20260505170032 41 319 16.0 22.0 0.00 0.00 0.00 50 1019.5
20260505164533 40 31 18.0 25.0 0.00 0.00 0.00 51 1019.6
20260505163032 40 26 14.0 21.0 0.00 0.00 0.00 52 1019.6
20260505161532 39 332 10.0 16.0 0.00 0.00 0.00 55 1019.7
20260505153039 38 338 12.0 18.0 0.00 0.00 0.00 58 1019.7
20260505151532 38 23 13.0 20.0 0.00 0.00 0.00 58 1019.9
20260505124530 33 346 10.0 12.0 0.00 0.00 0.00 69 1019.0
20260505123045 33 351 10.0 14.0 0.00 0.00 0.00 69 1018.7
20260505121532 32 336 8.0 13.0 0.00 0.00 0.00 69 1018.8
20260505120039 32 347 11.0 15.0 0.00 0.00 0.00 68 1018.7
20260505114532 32 344 11.0 14.0 0.00 0.00 0.00 67 1018.5
20260505113032 32 5 10.0 14.0 0.00 0.00 0.00 64 1018.5
20260505111535 32 5 10.0 13.0 0.00 0.00 0.00 64 1018.3
20260505101532 34 5 9.0 12.0 0.00 0.00 0.00 62 1018.4
20260505100034 35 5 10.0 14.0 0.00 0.00 0.00 60 1018.3
20260505094532 35 5 10.0 13.0 0.00 0.00 0.00 61 1018.2
20260505093031 35 360 9.0 11.0 0.00 0.00 0.00 60 1018.1
20260505091530 35 5 7.0 9.0 0.00 0.00 0.00 59 1018.1
20260505090030 35 13 6.0 9.0 0.00 0.00 0.00 60 1018.2
20260505084536 35 5 7.0 9.0 0.00 0.00 0.00 59 1018.0
20260505083031 36 355 7.0 9.0 0.00 0.00 0.00 58 1018.1
20260505081531 37 342 7.0 10.0 0.00 0.00 0.00 57 1018.1
20260505080031 37 344 4.0 6.0 0.00 0.00 0.00 57 1018.0
20260505074534 37 313 3.0 5.0 0.00 0.00 0.00 57 1017.9
20260505073032 37 311 3.0 5.0 0.00 0.00 0.00 55 1018.0
20260505071530 38 5 3.0 5.0 0.00 0.00 0.00 55 1017.8
20260505070032 37 0 0.0 3.0 0.00 0.00 0.00 55 1017.8
20260505064533 37 343 2.0 6.0 0.00 0.00 0.00 55 1018.1
20260505063032 37 309 3.0 6.0 0.00 0.00 0.00 55 1017.9
20260505061530 37 279 4.0 8.0 0.00 0.00 0.00 55 1017.6
20260505060032 36 309 2.0 6.0 0.00 0.00 0.00 55 1017.9
20260505054544 37 331 2.0 8.0 0.00 0.00 0.00 55 1017.9
20260505053030 36 11 3.0 5.0 0.00 0.00 0.00 56 1017.6
20260505051532 35 44 4.0 6.0 0.00 0.00 0.00 58 1017.4
20260505041532 39 44 8.0 10.0 0.00 0.00 0.00 53 1017.5
20260505040030 39 42 5.0 7.0 0.00 0.00 0.00 52 1017.4
20260505034538 40 48 7.0 12.0 0.00 0.00 0.00 51 1017.4
20260505033031 41 40 8.0 14.0 0.00 0.00 0.00 50 1016.9
20260505031531 41 33 11.0 17.0 0.00 0.00 0.00 48 1016.8
20260505030043 42 36 11.0 17.0 0.00 0.00 0.00 47 1016.5
20260505024529 43 35 12.0 16.0 0.00 0.00 0.00 45 1016.6
20260505023039 45 33 14.0 21.0 0.00 0.00 0.00 43 1016.3
20260505021531 46 42 19.0 24.0 0.00 0.00 0.00 41 1016.1
20260505020034 47 30 19.0 26.0 0.00 0.00 0.00 38 1015.9
20260505014537 49 34 18.0 26.0 0.00 0.00 0.00 35 1015.7
20260505013033 50 13 18.0 28.0 0.00 0.00 0.00 32 1015.5
20260505011530 51 31 20.0 30.0 0.00 0.00 0.00 29 1015.3
20260505010030 52 360 19.0 31.0 0.00 0.00 0.00 26 1015.3
20260505004554 52 9 21.0 29.0 0.00 0.00 0.00 26 1015.4
20260505003030 53 30 20.0 33.0 0.00 0.00 0.00 25 1015.1
20260505001536 53 344 24.0 34.0 0.00 0.00 0.00 23 1015.3
20260505000036 53 355 26.0 34.0 0.00 0.00 0.00 23 1015.2
20260504234528 53 355 26.0 36.0 0.00 0.00 0.00 24 1015.4
20260504233028 52 24 25.0 34.0 0.00 0.00 0.00 25 1015.2
20260504231530 53 5 30.0 38.0 0.00 0.00 0.00 25 1015.1
20260504230032 53 351 28.0 41.0 0.00 0.00 0.00 25 1015.1
20260504224534 53 9 21.0 43.0 0.00 0.00 0.00 26 1015.1